Location: Innerarity Island Observatory
(30.3139°N, 87.4867°W)
Time: 10:16:57
(UTC-06:00)

Amateur Radio Satellites - All Passes

Search period start: 25 January 2015 09:46
Search period end: 26 January 2015 09:46
Location: Innerarity Island Observatory, 30.3139°N, 87.4867°W

Satellite Date Start Highest point End Downlink Frequencies (MHz)
Time Altitude Azimuth
AISAT 25 Jan 09:48:41 09:52:29 27° 97° (E) 09:56:20 437.250
FUNcube-1 25 Jan 09:49:08 09:53:34 67° 100° (E) 09:57:50 145.935
SEEDS 25 Jan 09:50:22 09:52:59 16° 289° (WNW) 09:55:25 437.485
NANOSAT C BR1 25 Jan 09:56:33 10:00:42 57° 76° (ENE) 10:04:54 145.865
UWE-3 25 Jan 09:57:45 10:02:17 76° 283° (WNW) 10:06:38 435.000/436.395/437.385
QB50P2 25 Jan 10:08:07 10:12:23 84° 78° (ENE) 10:16:41 145.880/145.840
HUMSAT D 25 Jan 10:13:48 10:18:03 71° 101° (E) 10:22:12 437.325/437.525
PHONESAT 2.4 25 Jan 10:16:43 10:20:19 66° 332° (NNW) 10:23:56 2401.200-2431.200
ANTELSAT 25 Jan 10:18:39 10:23:08 42° 262° (W) 10:27:37 437.575/2403.000
VELOX 1 25 Jan 10:18:51 10:23:19 62° 101° (E) 10:27:46 145.980
QB50P1 25 Jan 10:19:07 10:23:21 71° 258° (WSW) 10:27:38 145.935-145.965
DOVE 4 25 Jan 10:21:13 10:23:50 14° 292° (WNW) 10:26:07 437.250
HO-68 25 Jan 10:23:40 10:28:22 18° 296° (WNW) 10:32:42 435.675
TIGRISAT 25 Jan 10:29:23 10:33:38 33° 263° (W) 10:37:52 435.000
SO-50 25 Jan 10:30:18 10:34:42 59° 115° (ESE) 10:39:17 436.795
POLYITAN 1 25 Jan 10:30:55 10:35:05 49° 261° (W) 10:39:15 437.675
50 SAT 25 Jan 10:31:07 10:35:12 87° 104° (ESE) 10:39:12 437.505
Oscar 11 25 Jan 10:34:38 10:37:13 15° 289° (WNW) 10:39:37 145.826/435.025
CUBEBUG 1 25 Jan 10:41:06 10:45:18 41° 99° (E) 10:49:31 437.445
CINEMA 3 25 Jan 10:41:29 10:43:47 13° 292° (WNW) 10:45:47 145.822/145.860
CUBEBUG 2 25 Jan 10:45:51 10:49:01 18° 289° (WNW) 10:51:56 437.445
AIST 1 25 Jan 10:53:36 10:57:12 28° 91° (E) 11:00:53
POPSAT HIP 1 25 Jan 10:54:06 10:57:42 26° 264° (W) 11:01:15 437.405
BUGSAT 1 25 Jan 10:55:08 10:58:46 31° 263° (W) 11:02:24 437.445
DUCHIFAT 1 25 Jan 10:59:41 11:03:04 22° 265° (W) 11:06:22 145.980
UKube-1 25 Jan 11:08:15 11:10:00 12° 291° (WNW) 11:11:29 .
ESTCUBE 1 25 Jan 11:13:11 11:17:42 72° 283° (WNW) 11:22:12 437.505/2401.250
ZACube-1 25 Jan 11:14:11 11:16:01 12° 291° (WNW) 11:17:35 437.345
BEESAT 2 25 Jan 11:19:04 11:20:07 11° 49° (NE) 11:21:23 435.950
VERMONT LUNAR 25 Jan 11:23:50 11:26:27 19° 348° (NNW) 11:29:03 437.305
AISAT 25 Jan 11:25:33 11:28:59 21° 289° (WNW) 11:32:16 437.250
GONETS M04 25 Jan 11:35:09 11:41:37 24° 71° (ENE) 11:48:28
BEESAT 3 25 Jan 11:36:10 11:39:08 19° 54° (NE) 11:42:11 437.485
TISAT 1 25 Jan 11:36:57 11:40:58 39° 98° (E) 11:45:00 437.305
Oscar 19 25 Jan 11:43:17 11:47:04 21° 70° (ENE) 11:51:01 437.125/150
PHONESAT 2.4 25 Jan 11:56:33 11:59:20 20° 348° (NNW) 12:02:07 2401.200-2431.200
SO-50 25 Jan 12:13:38 12:15:45 13° 312° (NW) 12:17:40 436.795
CUBEBUG 1 25 Jan 12:19:05 12:21:22 13° 290° (WNW) 12:23:26 437.445
SPROUT 25 Jan 12:20:11 12:24:27 55° 284° (WNW) 12:28:42 437.525
Gurwin Techsat 1B 25 Jan 12:23:33 12:24:43 11° 67° (ENE) 12:26:15 435.225
AIST 2 25 Jan 12:27:58 12:31:31 26° 56° (NE) 12:35:05 435.215
AIST 1 25 Jan 12:32:16 12:34:58 16° 285° (WNW) 12:37:27
RS-15 25 Jan 12:33:17 12:40:29 19° 37° (NE) 12:48:30 29.354- 29.394
BEESAT 2 25 Jan 12:54:41 12:58:45 55° 246° (WSW) 13:02:44 435.950
VERMONT LUNAR 25 Jan 13:03:08 13:05:25 16° 5° (N) 13:07:42 437.305
SWISSCUBE 25 Jan 13:12:04 13:16:50 72° 101° (E) 13:21:37 437.505
BEESAT 3 25 Jan 13:13:46 13:17:19 27° 248° (WSW) 13:20:44 437.485
TISAT 1 25 Jan 13:14:23 13:16:30 13° 290° (WNW) 13:18:24 437.305
PCSat 25 Jan 13:18:53 13:21:39 14° 51° (NE) 13:24:41 145.827
Oscar 19 25 Jan 13:21:29 13:26:14 35° 262° (W) 13:30:56 437.125/150
KKS-1 25 Jan 13:24:51 13:27:03 14° 92° (E) 13:29:30 437.445
ITAMSAT 1 25 Jan 13:27:18 13:32:27 85° 79° (E) 13:37:40 435.822/435.867
BEESAT 25 Jan 13:28:45 13:33:32 80° 283° (WNW) 13:38:18 436.000
ITUPSAT 1 25 Jan 13:29:51 13:34:38 80° 283° (WNW) 13:39:26 437.325
GONETS M04 25 Jan 13:30:33 13:39:00 58° 268° (W) 13:47:24
PHONESAT 2.4 25 Jan 13:36:18 13:38:46 17° 5° (N) 13:41:14 2401.200-2431.200
Gurwin Techsat 1B 25 Jan 13:58:53 14:04:10 72° 258° (WSW) 14:09:30 435.225
HORYU 2 25 Jan 14:03:52 14:07:58 36° 74° (ENE) 14:12:07 437.375
AIST 2 25 Jan 14:06:46 14:10:00 21° 249° (WSW) 14:13:07 435.215
CUSAT 1 25 Jan 14:33:04 14:36:57 18° 64° (ENE) 14:40:28 437.405
AO-7 25 Jan 14:34:55 14:42:46 48° 68° (ENE) 14:50:43 29.400- 29.500
VERMONT LUNAR 25 Jan 14:40:55 14:44:11 35° 22° (NNE) 14:47:29 437.305
RS-15 25 Jan 14:43:45 14:55:16 76° 61° (ENE) 15:07:18 29.354- 29.394
JAS-2 25 Jan 14:53:46 14:57:40 20° 71° (ENE) 15:01:34 435.910
KKS-1 25 Jan 14:59:43 15:03:55 38° 286° (WNW) 15:08:02 437.445
PCSat 25 Jan 15:00:15 15:05:37 64° 248° (WSW) 15:10:56 145.827
M-CUBED/EXP-1 PRIME 25 Jan 15:00:22 15:03:38 59° 105° (ESE) 15:07:01 437.505
STARS 25 Jan 15:02:49 15:07:12 56° 285° (WNW) 15:11:31 437.465
PHONESAT 2.4 25 Jan 15:14:35 15:18:00 36° 22° (NNE) 15:21:26 2401.200-2431.200
DANDE 25 Jan 15:22:50 15:29:18 47° 75° (ENE) 15:34:11 436.750
AUBIESAT-1 25 Jan 15:37:20 15:40:26 38° 289° (WNW) 15:43:38 437.475
HORYU 2 25 Jan 15:42:03 15:44:47 15° 267° (W) 15:47:19 437.375
O/OREOS (USA 219) 25 Jan 16:05:35 16:09:49 46° 105° (ESE) 16:14:09 437.305
MOZHAYETS 4 25 Jan 16:08:11 16:12:20 35° 98° (E) 16:16:31
CUSAT 1 25 Jan 16:14:48 16:20:36 42° 270° (W) 16:24:57 437.405
VERMONT LUNAR 25 Jan 16:19:03 16:22:20 36° 215° (SW) 16:25:37 437.305
AO-7 25 Jan 16:28:32 16:35:46 31° 263° (W) 16:42:47 29.400- 29.500
JAS-2 25 Jan 16:37:06 16:42:40 40° 261° (W) 16:47:43 435.910
Cubesat XI-IV 25 Jan 16:38:07 16:42:24 26° 71° (ENE) 16:46:49 437.490
PHONESAT 2.4 25 Jan 16:53:11 16:56:35 37° 215° (SW) 16:59:59 2401.200-2431.200
RS-15 25 Jan 16:58:14 17:06:59 24° 254° (WSW) 17:15:13 29.354- 29.394
CUTE-I 25 Jan 16:58:38 17:03:34 42° 73° (ENE) 17:08:35 437.470
DANDE 25 Jan 17:07:56 17:11:57 17° 278° (W) 17:15:06 436.750
MOZHAYETS 4 25 Jan 17:46:25 17:49:20 16° 289° (WNW) 17:52:05
O/OREOS (USA 219) 25 Jan 17:47:33 17:49:35 12° 301° (WNW) 17:51:22 437.305
CUBESAT XI-V 25 Jan 17:48:52 17:52:57 30° 97° (E) 17:57:06 437.345
STRAND 1 25 Jan 17:53:39 17:57:42 24° 95° (E) 18:01:54 437.568
PRISM 25 Jan 17:59:16 18:03:23 61° 101° (E) 18:07:30 437.425
JUGNU 25 Jan 18:01:45 18:06:09 22° 168° (SSE) 18:10:37 437.505
Cubesat XI-IV 25 Jan 18:17:48 18:22:25 29° 263° (W) 18:26:58 437.490
YUBILEINY 25 Jan 18:27:56 18:34:14 24° 86° (E) 18:40:56 435.215
SRMSAT 25 Jan 18:35:10 18:38:25 15° 163° (SSE) 18:41:46 437.500
CUTE-I 25 Jan 18:40:13 18:43:52 18° 267° (W) 18:47:17 437.470
BRITE-PL 25 Jan 18:54:52 18:58:12 19° 69° (ENE) 19:01:53 437.365/2234.400
HO-68 25 Jan 18:57:15 19:03:04 29° 67° (ENE) 19:09:03 435.675
SEEDS 25 Jan 19:02:51 19:04:04 11° 70° (ENE) 19:05:31 437.485
SO-50 25 Jan 19:08:44 19:11:16 14° 49° (NE) 19:14:01 436.795
GOMX 1 25 Jan 19:10:57 19:14:23 20° 69° (ENE) 19:18:08 467.674
CUBESAT XI-V 25 Jan 19:26:46 19:30:14 20° 288° (WNW) 19:33:34 437.345
STRAND 1 25 Jan 19:32:26 19:36:55 30° 288° (WNW) 19:41:19 437.568
COMPASS 1 25 Jan 19:33:08 19:36:23 22° 73° (ENE) 19:39:44 437.405
CANX-2 25 Jan 19:34:29 19:38:28 38° 75° (ENE) 19:42:29 2200.000
DOVE 4 25 Jan 19:41:23 19:45:33 30° 72° (ENE) 19:50:01 437.250
Oscar 11 25 Jan 19:48:19 19:50:25 14° 70° (ENE) 19:52:45 145.826/435.025
JUGNU 25 Jan 19:49:35 19:54:43 30° 177° (S) 19:59:51 437.505
CINEMA 3 25 Jan 19:58:34 20:02:26 25° 72° (ENE) 20:06:32 145.822/145.860
CUTE 1.7 + AOD 2 25 Jan 19:58:55 20:03:12 72° 77° (ENE) 20:07:30 437.475
AAUSAT CUBESAT 2 25 Jan 20:01:45 20:05:45 44° 75° (ENE) 20:09:47 437.432
CUBEBUG 2 25 Jan 20:02:18 20:04:55 15° 70° (ENE) 20:07:46 437.445
DELFI C3 25 Jan 20:20:26 20:23:48 26° 73° (ENE) 20:27:13 145.870
UKube-1 25 Jan 20:20:29 20:23:30 19° 71° (ENE) 20:26:40 .
YUBILEINY 25 Jan 20:22:05 20:30:35 56° 280° (W) 20:39:04 435.215
SRMSAT 25 Jan 20:22:13 20:27:06 26° 172° (S) 20:32:00 437.500
ZACube-1 25 Jan 20:26:56 20:30:07 20° 71° (ENE) 20:33:29 437.345
BRITE-PL 25 Jan 20:32:06 20:36:27 35° 264° (W) 20:41:06 437.365/2234.400
SEEDS 25 Jan 20:35:26 20:39:33 45° 261° (W) 20:43:39 437.485
DX 1 25 Jan 20:35:39 20:39:26 31° 73° (ENE) 20:43:18 434.975-435.025
FUNcube-1 25 Jan 20:39:37 20:43:24 27° 73° (ENE) 20:47:18 145.935
AISAT 25 Jan 20:43:13 20:45:01 13° 69° (ENE) 20:47:04 437.250
HO-68 25 Jan 20:43:48 20:50:35 43° 261° (W) 20:57:17 435.675
SO-50 25 Jan 20:47:25 20:52:18 60° 245° (WSW) 20:57:06 436.795
GOMX 1 25 Jan 20:47:51 20:52:14 35° 264° (W) 20:56:53 467.674
UWE-3 25 Jan 20:48:57 20:53:18 43° 75° (ENE) 20:57:47 435.000/436.395/437.385
HUMSAT D 25 Jan 21:00:46 21:04:14 24° 73° (ENE) 21:07:48 437.325/437.525
COMPASS 1 25 Jan 21:08:42 21:12:03 22° 265° (W) 21:15:16 437.405
VELOX 1 25 Jan 21:11:38 21:15:18 27° 73° (ENE) 21:19:05 145.980
CANX-2 25 Jan 21:12:31 21:14:37 13° 268° (W) 21:16:27 2200.000
50 SAT 25 Jan 21:13:32 21:16:51 24° 73° (ENE) 21:20:16 437.505
ISS 25 Jan 21:19:15 21:21:41 20° 128° (SE) 21:24:12 145.825
DOVE 4 25 Jan 21:19:32 21:23:22 22° 267° (W) 21:27:14 437.250
Oscar 11 25 Jan 21:22:15 21:26:20 38° 262° (W) 21:30:23 145.826/435.025
CUBEBUG 1 25 Jan 21:33:05 21:35:51 17° 71° (ENE) 21:38:48 437.445
CINEMA 3 25 Jan 21:35:33 21:39:34 26° 265° (W) 21:43:39 145.822/145.860
CUBEBUG 2 25 Jan 21:36:52 21:41:17 41° 262° (W) 21:45:47 437.445
JUGNU 25 Jan 21:38:19 21:43:18 27° 187° (S) 21:48:15 437.505
AAUSAT CUBESAT 2 25 Jan 21:40:40 21:41:42 11° 269° (W) 21:42:25 437.432
UNISAT 6 25 Jan 21:41:50 21:45:17 23° 95° (E) 21:48:48 437.425
NANOSAT C BR1 25 Jan 21:49:01 21:51:25 15° 93° (E) 21:54:02 145.865
UKube-1 25 Jan 21:55:51 21:59:32 26° 263° (W) 22:03:10 .
DELFI C3 25 Jan 21:56:14 21:59:04 17° 266° (W) 22:01:44 145.870
QB50P2 25 Jan 22:00:17 22:03:34 22° 95° (E) 22:06:56 145.880/145.840
ZACube-1 25 Jan 22:02:17 22:06:18 30° 264° (W) 22:10:20 437.345
ESTCUBE 1 25 Jan 22:07:15 22:11:35 50° 75° (ENE) 22:15:56 437.505/2401.250
SRMSAT 25 Jan 22:10:41 22:15:50 30° 182° (S) 22:20:58 437.500
QB50P1 25 Jan 22:10:42 22:14:25 29° 97° (E) 22:18:10 145.935-145.965
DX 1 25 Jan 22:12:57 22:15:47 16° 266° (W) 22:18:27 434.975-435.025
FUNcube-1 25 Jan 22:16:12 22:19:45 21° 266° (W) 22:23:11 145.935
ANTELSAT 25 Jan 22:16:44 22:21:10 64° 100° (E) 22:25:28 437.575/2403.000
AISAT 25 Jan 22:17:05 22:21:19 44° 261° (W) 22:25:34 437.250
POLYITAN 1 25 Jan 22:22:29 22:26:34 41° 99° (E) 22:30:39 437.675
TISAT 1 25 Jan 22:25:28 22:27:45 15° 70° (ENE) 22:30:14 437.305
TIGRISAT 25 Jan 22:26:50 22:31:19 84° 102° (ESE) 22:35:39 435.000
UWE-3 25 Jan 22:27:43 22:30:07 13° 269° (W) 22:32:17 435.000/436.395/437.385
HUMSAT D 25 Jan 22:36:38 22:40:00 21° 265° (W) 22:43:15 437.325/437.525
BUGSAT 1 25 Jan 22:42:42 22:46:55 56° 100° (E) 22:51:07 437.445
AIST 1 25 Jan 22:43:23 22:47:43 71° 83° (E) 22:52:04
POPSAT HIP 1 25 Jan 22:44:29 22:48:49 80° 103° (ESE) 22:53:07 437.405
VELOX 1 25 Jan 22:48:39 22:51:54 19° 265° (W) 22:55:03 145.980
50 SAT 25 Jan 22:48:57 22:51:58 19° 266° (W) 22:54:51 437.505
DUCHIFAT 1 25 Jan 22:49:29 22:53:49 89° 270° (W) 22:58:05 145.980
ISS 25 Jan 22:55:20 22:58:06 25° 321° (NW) 23:00:52 145.825
CUBEBUG 1 25 Jan 23:08:14 23:12:03 30° 263° (W) 23:15:51 437.445
SPROUT 25 Jan 23:08:37 23:12:47 52° 76° (ENE) 23:17:00 437.525
UNISAT 6 25 Jan 23:18:30 23:22:03 23° 288° (WNW) 23:25:24 437.425
NANOSAT C BR1 25 Jan 23:23:34 23:27:25 32° 286° (WNW) 23:31:13 145.865
JUGNU 25 Jan 23:28:10 23:31:50 16° 196° (SSW) 23:35:24 437.505
QB50P2 25 Jan 23:35:59 23:39:26 23° 288° (WNW) 23:42:46 145.880/145.840
QB50P1 25 Jan 23:47:11 23:50:08 18° 289° (WNW) 23:52:55 145.935-145.965
ESTCUBE 1 25 Jan 23:47:58 23:48:49 10° 269° (W) 23:49:20 437.505/2401.250
TISAT 1 25 Jan 23:59:30 00:03:20 33° 262° (W) 00:07:10 437.305
SRMSAT 25 Jan 23:59:58 00:04:33 23° 191° (SSW) 00:09:05 437.500
POLYITAN 1 26 Jan 00:00:13 00:02:11 13° 290° (WNW) 00:03:57 437.675
Oscar 19 26 Jan 00:02:31 00:03:45 11° 90° (E) 00:05:23 437.125/150
SWISSCUBE 26 Jan 00:13:15 00:17:42 42° 74° (ENE) 00:22:12 437.505
GONETS M04 26 Jan 00:28:33 00:36:01 34° 88° (E) 00:43:41
BEESAT 26 Jan 00:29:34 00:34:15 60° 75° (ENE) 00:38:57 436.000
ITUPSAT 1 26 Jan 00:31:00 00:35:42 61° 75° (ENE) 00:40:24 437.325
BEESAT 3 26 Jan 01:26:10 01:28:08 14° 110° (ESE) 01:30:20 437.485
Oscar 19 26 Jan 01:38:30 01:43:35 61° 284° (WNW) 01:48:37 437.125/150
M-CUBED/EXP-1 PRIME 26 Jan 01:44:10 01:48:04 34° 71° (ENE) 01:51:44 437.505
ITAMSAT 1 26 Jan 01:46:07 01:51:09 49° 100° (E) 01:56:13 435.822/435.867
SRMSAT 26 Jan 01:51:27 01:53:12 11° 199° (SSW) 01:54:47 437.500
KKS-1 26 Jan 01:51:47 01:56:15 89° 257° (WSW) 02:00:46 437.445
SWISSCUBE 26 Jan 01:53:07 01:55:48 14° 267° (W) 01:58:14 437.505
STARS 26 Jan 01:54:00 01:58:22 60° 76° (ENE) 02:02:46 437.465
HORYU 2 26 Jan 02:03:42 02:04:39 11° 91° (E) 02:05:55 437.375
AUBIESAT-1 26 Jan 02:20:07 02:24:26 89° 244° (WSW) 02:28:25 437.475
Gurwin Techsat 1B 26 Jan 02:20:58 02:26:17 76° 102° (ESE) 02:31:36 435.225
AIST 2 26 Jan 02:21:13 02:24:22 21° 111° (ESE) 02:27:41 435.215
O/OREOS (USA 219) 26 Jan 02:21:16 02:25:28 35° 67° (ENE) 02:29:41 437.305
GONETS M04 26 Jan 02:24:30 02:32:43 41° 283° (WNW) 02:40:47
BEESAT 2 26 Jan 02:43:53 02:47:58 70° 298° (WNW) 02:52:06 435.950
AO-7 26 Jan 02:44:20 02:50:04 21° 94° (E) 02:56:14 29.400- 29.500
DANDE 26 Jan 02:46:34 02:49:26 13° 82° (E) 02:53:10 436.750
RS-15 26 Jan 02:54:37 02:59:18 15° 104° (ESE) 03:05:03 29.354- 29.394
BEESAT 3 26 Jan 03:02:14 03:06:00 35° 302° (WNW) 03:09:49 437.485
MOZHAYETS 4 26 Jan 03:05:39 03:08:39 18° 71° (ENE) 03:11:49
M-CUBED/EXP-1 PRIME 26 Jan 03:20:37 03:23:05 14° 260° (W) 03:25:16 437.505
ITAMSAT 1 26 Jan 03:27:09 03:30:19 16° 292° (WNW) 03:33:14 435.822/435.867
CUSAT 1 26 Jan 03:30:41 03:37:32 40° 90° (E) 03:45:16 437.405
HORYU 2 26 Jan 03:37:22 03:41:39 47° 285° (WNW) 03:45:53 437.375
JAS-2 26 Jan 03:50:44 03:55:45 31° 98° (E) 04:01:26 435.910
PCSat 26 Jan 03:53:13 03:58:07 38° 110° (ESE) 04:03:08 145.827
AIST 2 26 Jan 03:59:18 04:02:53 25° 304° (NW) 04:06:27 435.215
O/OREOS (USA 219) 26 Jan 04:01:47 04:04:38 16° 259° (WSW) 04:07:15 437.305
Gurwin Techsat 1B 26 Jan 04:04:42 04:05:44 10° 294° (WNW) 04:06:23 435.225
DANDE 26 Jan 04:24:15 04:31:43 83° 95° (E) 04:40:25 436.750
AO-7 26 Jan 04:35:14 04:43:28 65° 289° (WNW) 04:51:37 29.400- 29.500
MOZHAYETS 4 26 Jan 04:41:32 04:45:42 32° 263° (W) 04:49:48
PRISM 26 Jan 04:45:14 04:48:17 21° 72° (ENE) 04:51:26 437.425
CUBESAT XI-V 26 Jan 04:48:10 04:50:47 16° 70° (ENE) 04:53:36 437.345
RS-15 26 Jan 04:59:35 05:10:34 87° 118° (ESE) 05:21:34 29.354- 29.394
Cubesat XI-IV 26 Jan 05:01:48 05:05:05 17° 93° (E) 05:08:37 437.490
STRAND 1 26 Jan 05:04:39 05:08:09 20° 70° (ENE) 05:11:51 437.568
CUSAT 1 26 Jan 05:13:27 05:20:34 38° 286° (WNW) 05:28:17 437.405
CUTE-I 26 Jan 05:21:54 05:26:23 27° 96° (E) 05:30:58 437.470
ISS 26 Jan 05:27:34 05:30:10 21° 38° (NE) 05:32:48 145.825
JAS-2 26 Jan 05:35:55 05:40:49 29° 287° (WNW) 05:46:03 435.910
PCSat 26 Jan 05:37:23 05:41:41 23° 304° (NW) 05:45:51 145.827
DANDE 26 Jan 06:11:10 06:16:26 18° 295° (WNW) 06:21:32 436.750
PRISM 26 Jan 06:20:28 06:23:43 22° 264° (W) 06:26:53 437.425
CUBESAT XI-V 26 Jan 06:23:43 06:27:58 37° 262° (W) 06:32:13 437.345
YUBILEINY 26 Jan 06:39:06 06:47:41 57° 80° (E) 06:56:19 435.215
Cubesat XI-IV 26 Jan 06:40:19 06:45:26 45° 287° (WNW) 06:50:31 437.490
STRAND 1 26 Jan 06:42:27 06:47:08 36° 262° (W) 06:51:48 437.568
CUTE-I 26 Jan 07:01:50 07:06:25 29° 289° (WNW) 07:10:54 437.470
ISS 26 Jan 07:03:54 07:06:39 24° 231° (SW) 07:09:22 145.825
BRITE-PL 26 Jan 07:07:06 07:08:42 11° 88° (E) 07:10:43 437.365/2234.400
RS-15 26 Jan 07:16:14 07:24:34 23° 319° (NW) 07:32:31 29.354- 29.394
VERMONT LUNAR 26 Jan 07:26:29 07:27:53 12° 140° (SE) 07:29:25 437.305
DOVE 4 26 Jan 07:48:12 07:50:40 14° 90° (E) 07:53:23 437.250
CUTE 1.7 + AOD 2 26 Jan 07:51:11 07:54:08 19° 94° (E) 07:57:12 437.475
AAUSAT CUBESAT 2 26 Jan 07:53:32 07:54:25 11° 91° (E) 07:55:35 437.432
PHONESAT 2.4 26 Jan 08:04:18 08:06:16 14° 140° (SE) 08:08:20 2401.200-2431.200
HO-68 26 Jan 08:17:21 08:24:15 51° 101° (E) 08:31:11 435.675
SEEDS 26 Jan 08:25:51 08:29:50 44° 98° (E) 08:33:50 437.485
UNISAT 6 26 Jan 08:37:04 08:38:46 12° 69° (ENE) 08:40:45 437.425
YUBILEINY 26 Jan 08:37:16 08:44:01 24° 274° (W) 08:50:24 435.215
BRITE-PL 26 Jan 08:42:10 08:47:50 70° 284° (WNW) 08:53:14 437.365/2234.400
UWE-3 26 Jan 08:46:54 08:49:01 14° 91° (E) 08:51:21 435.000/436.395/437.385
GOMX 1 26 Jan 08:55:14 09:00:40 73° 283° (WNW) 09:05:49 467.674
COMPASS 1 26 Jan 08:57:15 09:01:25 86° 283° (WNW) 09:05:34 437.405
QB50P1 26 Jan 09:00:39 09:01:43 11° 69° (ENE) 09:03:05 145.935-145.965
CANX-2 26 Jan 09:01:24 09:05:27 45° 285° (WNW) 09:09:27 2200.000
VERMONT LUNAR 26 Jan 09:02:14 09:05:43 84° 329° (NNW) 09:09:13 437.305
ANTELSAT 26 Jan 09:10:14 09:14:17 30° 73° (ENE) 09:18:26 437.575/2403.000
POLYITAN 1 26 Jan 09:11:32 09:14:05 16° 71° (ENE) 09:16:49 437.675
Oscar 11 26 Jan 09:15:09 09:19:24 58° 100° (E) 09:23:37 145.826/435.025
SO-50 26 Jan 09:18:51 09:20:48 13° 109° (ESE) 09:23:02 436.795
TIGRISAT 26 Jan 09:19:46 09:24:05 37° 74° (ENE) 09:28:26 435.000
DOVE 4 26 Jan 09:23:47 09:28:50 50° 285° (WNW) 09:33:36 437.250
AAUSAT CUBESAT 2 26 Jan 09:26:25 09:30:21 41° 285° (WNW) 09:34:13 437.432
CUTE 1.7 + AOD 2 26 Jan 09:26:34 09:30:04 25° 287° (WNW) 09:33:28 437.475
BUGSAT 1 26 Jan 09:28:39 09:31:21 18° 71° (ENE) 09:34:13 437.445
POPSAT HIP 1 26 Jan 09:32:18 09:35:54 28° 73° (ENE) 09:39:36 437.405
CUBEBUG 2 26 Jan 09:34:05 09:38:39 67° 101° (E) 09:43:02 437.445
CINEMA 3 26 Jan 09:35:57 09:40:46 64° 284° (WNW) 09:45:20 145.822/145.860
DUCHIFAT 1 26 Jan 09:36:51 09:40:35 31° 73° (ENE) 09:44:24 145.980
